When you browse on this site, cookies collect data to enhance your experience and personalize the content and advertising you see.
Visit our Privacy Policy to learn more. By continuing to use the site, you agree to this use of cookies and data.
  • Em Portugal
  • Lista de países
  • Para 7 dias
  • Temperatura da água
  • Mapas de satélite
  • Mapa do tempo
  • Widgets de tempo
  • user-avatar
    Iniciar Sessão

    Previsão horária em Shusha

    Hoje, 21 Julho, Domingo

    Tempo Temperatura Precipitação Vento Pressão Humidade
    00:00 +20°C° 0 mm 2 m/s 662 mmHg 58%
    01:00 +20°C° 0 mm 2 m/s 662 mmHg 58%
    02:00 +19°C° 0 mm 2 m/s 662 mmHg 58%
    03:00 +20°C° 0 mm 1 m/s 661 mmHg 59%
    04:00 +21°C° 0 mm 1 m/s 662 mmHg 59%
    05:00 +21°C° 0 mm 1 m/s 662 mmHg 58%
    06:00 +22°C° 0 mm 1 m/s 663 mmHg 58%
    07:00 +24°C° 0 mm 2 m/s 663 mmHg 53%
    08:00 +25°C° 0 mm 2 m/s 663 mmHg 48%
    09:00 +27°C° 0 mm 3 m/s 663 mmHg 41%
    10:00 +28°C° 0 mm 3 m/s 663 mmHg 39%
    11:00 +29°C° 0 mm 3 m/s 663 mmHg 37%
    12:00 +30°C° 0 mm 3 m/s 663 mmHg 35%
    13:00 +31°C° 0 mm 3 m/s 662 mmHg 34%
    14:00 +31°C° 0 mm 3 m/s 662 mmHg 33%
    15:00 +33°C° 0 mm 3 m/s 661 mmHg 32%
    16:00 +31°C° 0 mm 3 m/s 661 mmHg 35%
    17:00 +30°C° 0 mm 3 m/s 661 mmHg 39%
    18:00 +30°C° 0 mm 2 m/s 661 mmHg 42%
    19:00 +27°C° 0 mm 2 m/s 660 mmHg 50%
    20:00 +25°C° 0 mm 2 m/s 660 mmHg 57%
    21:00 +23°C° 0 mm 1 m/s 659 mmHg 65%
    22:00 +23°C° 0 mm 1 m/s 659 mmHg 62%
    23:00 +23°C° 0 mm 2 m/s 659 mmHg 60%

    Amanhã, 22 Julho, Segunda-feira

    Tempo Temperatura Precipitação Vento Pressão Humidade
    00:00 +21°C° 0 mm 2 m/s 659 mmHg 58%
    01:00 +21°C° 0 mm 2 m/s 659 mmHg 57%
    02:00 +22°C° 0 mm 1 m/s 659 mmHg 57%
    03:00 +22°C° 0 mm 1 m/s 659 mmHg 56%
    04:00 +23°C° 0 mm 1 m/s 659 mmHg 56%
    05:00 +23°C° 0 mm 1 m/s 659 mmHg 56%
    06:00 +24°C° 0 mm 1 m/s 659 mmHg 56%
    07:00 +25°C° 0 mm 1 m/s 659 mmHg 52%
    08:00 +27°C° 0 mm 1 m/s 660 mmHg 48%
    09:00 +29°C° 0 mm 1 m/s 660 mmHg 44%
    10:00 +30°C° 0 mm 2 m/s 660 mmHg 43%
    11:00 +30°C° 0 mm 2 m/s 660 mmHg 42%
    12:00 +31°C° 0 mm 3 m/s 660 mmHg 41%
    13:00 +33°C° 0 mm 3 m/s 659 mmHg 41%
    14:00 +33°C° 0 mm 3 m/s 659 mmHg 41%
    15:00 +33°C° 0 mm 3 m/s 658 mmHg 41%
    16:00 +31°C° 0 mm 3 m/s 658 mmHg 45%
    17:00 +29°C° 0 mm 4 m/s 658 mmHg 49%
    18:00 +28°C° 0 mm 4 m/s 658 mmHg 54%
    19:00 +26°C° 0 mm 3 m/s 657 mmHg 60%
    20:00 +24°C° 0 mm 2 m/s 657 mmHg 66%
    21:00 +22°C° 0 mm 1 m/s 657 mmHg 72%
    22:00 +22°C° 0 mm 1 m/s 657 mmHg 73%
    23:00 +21°C° 0 mm 1 m/s 657 mmHg 74%

    Depois de amanhã, 23 Julho, Terça-feira

    Tempo Temperatura Precipitação Vento Pressão Humidade
    00:00 +21°C° 0 mm 1 m/s 657 mmHg 75%
    01:00 +21°C° 0 mm 1 m/s 657 mmHg 74%
    02:00 +21°C° 0 mm 1 m/s 657 mmHg 73%
    03:00 +19°C° 0 mm 2 m/s 657 mmHg 72%
    04:00 +21°C° 0 mm 1 m/s 657 mmHg 70%
    05:00 +21°C° 0 mm 1 m/s 658 mmHg 69%
    06:00 +21°C° 0 mm 1 m/s 658 mmHg 67%
    07:00 +23°C° 0 mm 2 m/s 658 mmHg 60%
    08:00 +24°C° 0 mm 2 m/s 659 mmHg 54%
    09:00 +26°C° 0 mm 3 m/s 659 mmHg 47%
    10:00 +27°C° 0 mm 3 m/s 659 mmHg 45%
    11:00 +28°C° 0 mm 3 m/s 659 mmHg 42%
    12:00 +29°C° 0 mm 4 m/s 659 mmHg 39%
    13:00 +30°C° 0 mm 4 m/s 658 mmHg 39%
    14:00 +30°C° 0 mm 4 m/s 658 mmHg 39%
    15:00 +30°C° 0 mm 4 m/s 657 mmHg 40%
    16:00 +29°C° 0 mm 4 m/s 657 mmHg 43%
    17:00 +28°C° 0 mm 3 m/s 657 mmHg 47%
    18:00 +27°C° 0 mm 3 m/s 657 mmHg 51%
    19:00 +25°C° 0 mm 2 m/s 656 mmHg 56%
    20:00 +23°C° 0 mm 2 m/s 656 mmHg 61%
    21:00 +22°C° 0 mm 1 m/s 656 mmHg 66%
    22:00 +21°C° 0 mm 1 m/s 656 mmHg 68%
    23:00 +21°C° 0 mm 1 m/s 656 mmHg 69%

    24 Julho, Quarta-feira

    Tempo Temperatura Precipitação Vento Pressão Humidade
    00:00 +21°C° 0 mm 1 m/s 656 mmHg 70%
    01:00 +20°C° 0 mm 1 m/s 656 mmHg 70%
    02:00 +20°C° 0 mm 1 m/s 656 mmHg 70%
    03:00 +20°C° 0 mm 1 m/s 656 mmHg 70%
    04:00 +20°C° 0 mm 1 m/s 656 mmHg 69%
    05:00 +20°C° 0 mm 1 m/s 656 mmHg 67%
    06:00 +21°C° 0 mm 1 m/s 657 mmHg 66%
    07:00 +22°C° 0 mm 1 m/s 657 mmHg 60%
    08:00 +24°C° 0 mm 2 m/s 657 mmHg 54%
    09:00 +26°C° 0 mm 2 m/s 658 mmHg 48%
    10:00 +27°C° 0 mm 2 m/s 658 mmHg 45%
    11:00 +28°C° 0 mm 2 m/s 658 mmHg 43%
    12:00 +29°C° 0 mm 3 m/s 658 mmHg 40%
    13:00 +30°C° 0 mm 3 m/s 657 mmHg 39%
    14:00 +31°C° 0 mm 3 m/s 657 mmHg 38%
    15:00 +31°C° 0 mm 3 m/s 657 mmHg 36%
    16:00 +30°C° 0 mm 3 m/s 657 mmHg 39%
    17:00 +30°C° 0 mm 2 m/s 657 mmHg 42%
    18:00 +29°C° 0 mm 2 m/s 657 mmHg 45%
    19:00 +27°C° 0 mm 2 m/s 657 mmHg 49%
    20:00 +25°C° 0 mm 1 m/s 657 mmHg 54%
    21:00 +23°C° 0 mm 1 m/s 657 mmHg 58%
    22:00 +23°C° 0 mm 1 m/s 657 mmHg 58%
    23:00 +23°C° 0 mm 1 m/s 657 mmHg 59%

    25 Julho, Quinta-feira

    Tempo Temperatura Precipitação Vento Pressão Humidade
    00:00 +22°C° 0 mm 1 m/s 657 mmHg 59%
    01:00 +22°C° 0 mm 1 m/s 657 mmHg 59%
    02:00 +22°C° 0 mm 1 m/s 657 mmHg 59%
    03:00 +21°C° 0 mm 1 m/s 656 mmHg 58%
    04:00 +22°C° 0 mm 1 m/s 657 mmHg 58%
    05:00 +22°C° 0 mm 1 m/s 657 mmHg 57%
    06:00 +23°C° 0 mm 1 m/s 657 mmHg 56%
    07:00 +25°C° 0 mm 1 m/s 658 mmHg 52%
    08:00 +26°C° 0 mm 1 m/s 658 mmHg 48%
    09:00 +28°C° 0 mm 2 m/s 659 mmHg 44%
    10:00 +29°C° 0 mm 2 m/s 659 mmHg 41%
    11:00 +31°C° 0 mm 3 m/s 659 mmHg 39%
    12:00 +33°C° 0 mm 3 m/s 658 mmHg 37%
    13:00 +33°C° 0 mm 3 m/s 658 mmHg 36%
    14:00 +34°C° 0 mm 3 m/s 658 mmHg 35%
    15:00 +34°C° 0 mm 3 m/s 657 mmHg 35%
    16:00 +33°C° 0 mm 3 m/s 657 mmHg 37%
    17:00 +31°C° 0 mm 2 m/s 657 mmHg 39%
    18:00 +30°C° 0 mm 2 m/s 656 mmHg 42%
    19:00 +28°C° 0 mm 2 m/s 656 mmHg 45%
    20:00 +26°C° 0 mm 2 m/s 656 mmHg 49%
    21:00 +24°C° 0 mm 1 m/s 656 mmHg 52%
    22:00 +24°C° 0 mm 1 m/s 656 mmHg 54%
    23:00 +23°C° 0 mm 1 m/s 656 mmHg 55%

    26 Julho, Sexta-feira

    Tempo Temperatura Precipitação Vento Pressão Humidade
    00:00 +22°C° 0 mm 1 m/s 656 mmHg 56%
    01:00 +22°C° 0 mm 1 m/s 656 mmHg 58%
    02:00 +21°C° 0 mm 1 m/s 656 mmHg 60%
    03:00 +21°C° 0 mm 1 m/s 656 mmHg 62%
    04:00 +21°C° 0 mm 1 m/s 656 mmHg 62%
    05:00 +21°C° 0 mm 1 m/s 656 mmHg 62%
    06:00 +22°C° 0 mm 1 m/s 656 mmHg 62%
    07:00 +23°C° 0 mm 1 m/s 657 mmHg 57%
    08:00 +25°C° 0 mm 2 m/s 657 mmHg 51%
    09:00 +26°C° 0 mm 2 m/s 657 mmHg 45%
    10:00 +27°C° 0 mm 2 m/s 657 mmHg 43%
    11:00 +28°C° 0 mm 3 m/s 657 mmHg 41%
    12:00 +29°C° 0 mm 3 m/s 657 mmHg 39%
    13:00 +30°C° 0 mm 3 m/s 656 mmHg 38%
    14:00 +30°C° 0 mm 3 m/s 656 mmHg 38%
    15:00 +30°C° 0 mm 3 m/s 655 mmHg 38%
    16:00 +30°C° 0 mm 3 m/s 655 mmHg 40%
    17:00 +29°C° 0 mm 3 m/s 655 mmHg 42%
    18:00 +28°C° 0 mm 3 m/s 655 mmHg 45%
    19:00 +26°C° 0 mm 2 m/s 655 mmHg 51%
    20:00 +24°C° 0 mm 2 m/s 655 mmHg 57%
    21:00 +22°C° 0 mm 1 m/s 655 mmHg 63%
    22:00 +22°C° 0 mm 1 m/s 655 mmHg 65%
    23:00 +21°C° 0 mm 1 m/s 655 mmHg 66%
    Mostrar mais